SWA3226 KMCO-KRDU

Flight info

Callsign SWA3226
Flight time 1h 19m
Altitude 41000
Route FATHE4 VIYAP Q69 GURGE PETTO DMSTR2
Aircraft B38M/M-SADE2E3GHIJ4J7P2RWZ/LB1D1

Departure

Time 2026-04-21 13:07
Airport Orlando International Airport (KMCO)

Arrival

Time 2026-04-21 14:26
Airport Raleigh-Durham International Airport (KRDU)
Time Latitude Longitude Altitude Speed Heading
2026-04-21 12:06 28.43545 -81.30389 97 ft 0 kts 97°
2026-04-21 12:55 28.43546 -81.30398 97 ft 4 kts 97°
2026-04-21 12:56 28.43549 -81.30428 99 ft 4 kts 90°
2026-04-21 12:56 28.43544 -81.30446 97 ft 4 kts 12°
2026-04-21 12:56 28.43523 -81.30447 99 ft 4 kts
2026-04-21 12:56 28.43517 -81.30448 97 ft 0 kts
2026-04-21 13:00 28.43519 -81.30448 97 ft 2 kts
2026-04-21 13:00 28.43573 -81.30446 97 ft 12 kts
2026-04-21 13:01 28.43647 -81.30375 97 ft 16 kts 51°
2026-04-21 13:01 28.43722 -81.30269 97 ft 19 kts 51°
2026-04-21 13:01 28.43820 -81.30178 97 ft 20 kts 10°
2026-04-21 13:01 28.43901 -81.30098 102 ft 17 kts 89°
2026-04-21 13:02 28.43880 -81.29955 101 ft 21 kts 111°
2026-04-21 13:02 28.43772 -81.29829 97 ft 25 kts 150°
2026-04-21 13:02 28.43400 -81.29804 98 ft 29 kts 179°
2026-04-21 13:03 28.43188 -81.29801 98 ft 31 kts 179°
2026-04-21 13:03 28.42966 -81.29799 97 ft 30 kts 179°
2026-04-21 13:03 28.42752 -81.29798 97 ft 31 kts 179°
2026-04-21 13:03 28.42534 -81.29795 99 ft 31 kts 179°
2026-04-21 13:04 28.42310 -81.29791 98 ft 33 kts 179°
2026-04-21 13:04 28.42071 -81.29791 98 ft 35 kts 179°
2026-04-21 13:04 28.41840 -81.29787 99 ft 31 kts 179°
2026-04-21 13:04 28.41620 -81.29786 99 ft 32 kts 179°
2026-04-21 13:05 28.41401 -81.29782 99 ft 30 kts 179°
2026-04-21 13:05 28.41197 -81.29785 98 ft 28 kts 174°
2026-04-21 13:05 28.41011 -81.29778 98 ft 27 kts 179°
2026-04-21 13:05 28.40864 -81.29774 99 ft 16 kts 178°
2026-04-21 13:06 28.40816 -81.29698 100 ft 9 kts 82°
2026-04-21 13:06 28.40819 -81.29614 98 ft 13 kts 89°
2026-04-21 13:06 28.40850 -81.29555 96 ft 7 kts
2026-04-21 13:06 28.40886 -81.29560 96 ft 6 kts 356°
2026-04-21 13:07 28.40983 -81.29563 95 ft 37 kts 360°
2026-04-21 13:07 28.41523 -81.29566 101 ft 116 kts 359°
2026-04-21 13:07 28.42524 -81.29572 282 ft 158 kts 359°
2026-04-21 13:07 28.43635 -81.29637 1070 ft 162 kts 355°
2026-04-21 13:08 28.44409 -81.29673 1645 ft 168 kts
2026-04-21 13:08 28.46057 -81.28992 2252 ft 211 kts 31°
2026-04-21 13:08 28.47390 -81.28077 2849 ft 237 kts 31°
2026-04-21 13:08 28.48730 -81.27172 4248 ft 230 kts 32°
2026-04-21 13:09 28.50163 -81.26210 5100 ft 248 kts 32°
2026-04-21 13:09 28.51752 -81.25444 6020 ft 258 kts 13°
2026-04-21 13:09 28.53571 -81.25234 6308 ft 260 kts
2026-04-21 13:09 28.55372 -81.25139 6446 ft 260 kts
2026-04-21 13:10 28.57185 -81.25186 6582 ft 260 kts
2026-04-21 13:10 28.59000 -81.25318 6715 ft 263 kts 355°
2026-04-21 13:10 28.60818 -81.25602 6871 ft 264 kts 355°
2026-04-21 13:10 28.62651 -81.25875 7057 ft 267 kts 355°
2026-04-21 13:11 28.64482 -81.26137 8135 ft 262 kts 355°
2026-04-21 13:11 28.66318 -81.26396 9135 ft 270 kts 355°
2026-04-21 13:11 28.68196 -81.26656 10171 ft 273 kts 354°
2026-04-21 13:11 28.70138 -81.26922 10883 ft 290 kts 353°
2026-04-21 13:12 28.71498 -81.27109 11251 ft 303 kts 353°
2026-04-21 13:12 28.73657 -81.27407 11811 ft 321 kts 352°
2026-04-21 13:12 28.75913 -81.27717 12541 ft 331 kts 352°
2026-04-21 13:12 28.78222 -81.28034 13331 ft 338 kts 352°
2026-04-21 13:13 28.80548 -81.28354 14373 ft 338 kts 351°
2026-04-21 13:13 28.82905 -81.28678 15209 ft 342 kts 351°
2026-04-21 13:13 28.85312 -81.28921 15926 ft 351 kts 353°
2026-04-21 13:13 28.87759 -81.29128 17083 ft 343 kts 353°
2026-04-21 13:14 28.90215 -81.29342 16936 ft 377 kts 353°
2026-04-21 13:14 28.92846 -81.29572 17874 ft 373 kts 353°
2026-04-21 13:14 28.95421 -81.29799 18881 ft 367 kts 352°
2026-04-21 13:14 28.97954 -81.30024 19833 ft 365 kts 352°
2026-04-21 13:15 29.00495 -81.30293 20492 ft 370 kts 351°
2026-04-21 13:15 29.03083 -81.30577 20961 ft 379 kts 351°
2026-04-21 13:15 29.05692 -81.30861 21876 ft 373 kts 351°
2026-04-21 13:15 29.08306 -81.31147 22346 ft 382 kts 350°
2026-04-21 13:16 29.10965 -81.31392 22977 ft 386 kts 353°
2026-04-21 13:16 29.13668 -81.31544 23501 ft 391 kts 353°
2026-04-21 13:16 29.16394 -81.31704 24105 ft 394 kts 352°
2026-04-21 13:16 29.19147 -81.31868 24640 ft 398 kts 352°
2026-04-21 13:17 29.21913 -81.32036 25221 ft 400 kts 352°
2026-04-21 13:17 29.24703 -81.32205 25751 ft 403 kts 352°
2026-04-21 13:17 29.27512 -81.32377 26280 ft 406 kts 352°
2026-04-21 13:17 29.30339 -81.32550 26778 ft 408 kts 352°
2026-04-21 13:18 29.33190 -81.32725 27252 ft 411 kts 352°
2026-04-21 13:18 29.36053 -81.32900 27728 ft 414 kts 351°
2026-04-21 13:18 29.38936 -81.33078 28189 ft 416 kts 351°
2026-04-21 13:18 29.41840 -81.33256 28657 ft 418 kts 351°
2026-04-21 13:19 29.44760 -81.33436 29086 ft 421 kts 351°
2026-04-21 13:19 29.47692 -81.33616 29531 ft 423 kts 351°
2026-04-21 13:19 29.50640 -81.33797 29942 ft 426 kts 351°
2026-04-21 13:19 29.53617 -81.33981 30338 ft 429 kts 351°
2026-04-21 13:20 29.56603 -81.34164 30746 ft 431 kts 351°
2026-04-21 13:20 29.59601 -81.34349 31126 ft 433 kts 351°
2026-04-21 13:20 29.62620 -81.34535 31511 ft 436 kts 351°
2026-04-21 13:20 29.65657 -81.34709 31884 ft 438 kts 351°
2026-04-21 13:21 29.68700 -81.34883 32342 ft 437 kts 351°
2026-04-21 13:21 29.71726 -81.35056 32870 ft 435 kts 351°
2026-04-21 13:21 29.74784 -81.35231 33378 ft 433 kts 351°
2026-04-21 13:21 29.77754 -81.35401 33870 ft 432 kts 351°
2026-04-21 13:22 29.80783 -81.35575 34375 ft 429 kts 351°
2026-04-21 13:22 29.83768 -81.35747 34789 ft 429 kts 351°
2026-04-21 13:22 29.86750 -81.35919 35186 ft 429 kts 350°
2026-04-21 13:22 29.89730 -81.36090 35561 ft 429 kts 350°
2026-04-21 13:23 29.92720 -81.36262 35895 ft 430 kts 349°
2026-04-21 13:23 29.95704 -81.36434 36243 ft 430 kts 349°
2026-04-21 13:23 29.98687 -81.36606 36617 ft 429 kts 349°
2026-04-21 13:23 30.01684 -81.36779 36850 ft 432 kts 349°
2026-04-21 13:24 30.04650 -81.36950 37393 ft 425 kts 349°
2026-04-21 13:24 30.07601 -81.37120 37784 ft 423 kts 348°
2026-04-21 13:24 30.10536 -81.37289 38114 ft 422 kts 348°
2026-04-21 13:24 30.13449 -81.37458 38387 ft 422 kts 348°
2026-04-21 13:25 30.16388 -81.37628 38581 ft 424 kts 348°
2026-04-21 13:25 30.19325 -81.37797 38988 ft 419 kts 348°
2026-04-21 13:25 30.21392 -81.37917 39176 ft 420 kts 347°
2026-04-21 13:25 30.23617 -81.38046 39349 ft 419 kts 347°
2026-04-21 13:26 30.26544 -81.38215 39474 ft 422 kts 347°
2026-04-21 13:26 30.29479 -81.38386 39576 ft 424 kts 347°
2026-04-21 13:26 30.32437 -81.38555 39783 ft 424 kts 347°
2026-04-21 13:26 30.35382 -81.38728 39937 ft 425 kts 348°
2026-04-21 13:27 30.38345 -81.38900 40118 ft 426 kts 348°
2026-04-21 13:27 30.41301 -81.39073 40317 ft 426 kts 348°
2026-04-21 13:27 30.44258 -81.39244 40509 ft 426 kts 348°
2026-04-21 13:27 30.47221 -81.39402 40691 ft 426 kts 348°
2026-04-21 13:28 30.50184 -81.39558 40861 ft 426 kts 348°
2026-04-21 13:28 30.53142 -81.39715 41002 ft 426 kts 348°
2026-04-21 13:28 30.59080 -81.40029 41264 ft 427 kts 348°
2026-04-21 13:29 30.65053 -81.40346 41351 ft 427 kts 348°
2026-04-21 13:29 30.70970 -81.40660 41350 ft 425 kts 348°
2026-04-21 13:30 30.76887 -81.40974 41358 ft 425 kts 348°
2026-04-21 13:30 30.82790 -81.41289 41357 ft 424 kts 348°
2026-04-21 13:31 30.88683 -81.41603 41330 ft 424 kts 348°
2026-04-21 13:31 30.94567 -81.41917 41340 ft 424 kts 348°
2026-04-21 13:32 31.00448 -81.42232 41346 ft 423 kts 348°
2026-04-21 13:32 31.06336 -81.42547 41339 ft 423 kts 348°
2026-04-21 13:33 31.12210 -81.42861 41328 ft 422 kts 348°
2026-04-21 13:33 31.18075 -81.43176 41355 ft 422 kts 348°
2026-04-21 13:34 31.23948 -81.43490 41347 ft 422 kts 349°
2026-04-21 13:34 31.29853 -81.43574 41358 ft 425 kts 350°
2026-04-21 13:35 31.35755 -81.43656 41346 ft 423 kts 350°
2026-04-21 13:35 31.41636 -81.43743 41349 ft 423 kts 350°
2026-04-21 13:36 31.47553 -81.43525 41312 ft 438 kts
2026-04-21 13:36 31.53448 -81.41338 41314 ft 448 kts
2026-04-21 13:37 31.59392 -81.38967 41342 ft 448 kts
2026-04-21 13:37 31.65288 -81.36554 41333 ft 449 kts
2026-04-21 13:38 31.71188 -81.34126 41331 ft 448 kts
2026-04-21 13:38 31.76355 -81.31998 41328 ft 448 kts
2026-04-21 13:39 31.82236 -81.29572 41329 ft 448 kts
2026-04-21 13:39 31.88123 -81.27140 41322 ft 448 kts
2026-04-21 13:40 31.94008 -81.24707 41314 ft 448 kts
2026-04-21 13:40 31.96975 -81.23887 41299 ft 427 kts 354°
2026-04-21 13:40 31.99917 -81.23687 41338 ft 425 kts 354°
2026-04-21 13:41 32.05824 -81.23296 41314 ft 423 kts 353°
2026-04-21 13:41 32.11698 -81.22984 41329 ft 423 kts 353°
2026-04-21 13:42 32.17583 -81.22690 41340 ft 423 kts 353°
2026-04-21 13:42 32.23464 -81.22397 41337 ft 423 kts 353°
2026-04-21 13:43 32.29345 -81.22103 41342 ft 422 kts 353°
2026-04-21 13:43 32.35213 -81.21811 41340 ft 422 kts 353°
2026-04-21 13:44 32.41076 -81.21518 41341 ft 422 kts 353°
2026-04-21 13:44 32.46946 -81.21224 41337 ft 422 kts 353°
2026-04-21 13:45 32.51886 -81.20492 41350 ft 428 kts 358°
2026-04-21 13:45 32.57791 -81.19560 41352 ft 428 kts 358°
2026-04-21 13:46 32.63690 -81.18658 41346 ft 426 kts 358°
2026-04-21 13:46 32.69572 -81.17761 41349 ft 427 kts 358°
2026-04-21 13:47 32.75457 -81.16863 41355 ft 426 kts 358°
2026-04-21 13:47 32.81341 -81.15964 41358 ft 426 kts 358°
2026-04-21 13:48 32.87229 -81.15063 41356 ft 427 kts 358°
2026-04-21 13:48 32.93114 -81.14160 41358 ft 426 kts 358°
2026-04-21 13:49 32.98989 -81.13259 41355 ft 425 kts 358°
2026-04-21 13:49 33.04841 -81.11979 41332 ft 441 kts 12°
2026-04-21 13:50 33.07644 -81.10242 41395 ft 453 kts 21°
2026-04-21 13:50 33.10329 -81.08341 41351 ft 457 kts 21°
2026-04-21 13:50 33.15788 -81.04339 41370 ft 458 kts 22°
2026-04-21 13:51 33.21181 -81.00295 41369 ft 457 kts 22°
2026-04-21 13:51 33.26558 -80.96242 41374 ft 457 kts 22°
2026-04-21 13:52 33.31937 -80.92180 41377 ft 457 kts 22°
2026-04-21 13:52 33.37314 -80.88115 41392 ft 457 kts 22°
2026-04-21 13:53 33.42681 -80.84051 41378 ft 456 kts 22°
2026-04-21 13:53 33.48041 -80.79987 41385 ft 457 kts 22°
2026-04-21 13:54 33.53409 -80.75909 41379 ft 457 kts 22°
2026-04-21 13:54 33.58768 -80.71833 41392 ft 455 kts 22°
2026-04-21 13:55 33.64109 -80.67765 41393 ft 456 kts 22°
2026-04-21 13:55 33.69479 -80.63669 41373 ft 456 kts 22°
2026-04-21 13:56 33.74829 -80.59580 41384 ft 456 kts 22°
2026-04-21 13:56 33.80176 -80.55489 41375 ft 455 kts 22°
2026-04-21 13:57 33.85509 -80.51403 41375 ft 455 kts 22°
2026-04-21 13:57 33.88185 -80.49349 41172 ft 454 kts 22°
2026-04-21 13:57 33.90841 -80.47310 40921 ft 452 kts 22°
2026-04-21 13:58 33.93518 -80.45254 40675 ft 450 kts 22°
2026-04-21 13:58 33.96156 -80.43225 40428 ft 449 kts 22°
2026-04-21 13:58 33.98774 -80.41209 40003 ft 446 kts 23°
2026-04-21 13:58 34.01412 -80.39181 38901 ft 455 kts 23°
2026-04-21 13:59 34.04074 -80.37126 38395 ft 449 kts 24°
2026-04-21 13:59 34.06678 -80.35116 37963 ft 441 kts 24°
2026-04-21 13:59 34.09295 -80.33102 36769 ft 451 kts 24°
2026-04-21 13:59 34.11896 -80.31088 36466 ft 439 kts 24°
2026-04-21 14:00 34.14466 -80.29104 35652 ft 440 kts 25°
2026-04-21 14:00 34.17080 -80.27084 34466 ft 450 kts 25°
2026-04-21 14:00 34.19694 -80.25057 33953 ft 443 kts 25°
2026-04-21 14:00 34.22301 -80.23039 32860 ft 449 kts 26°
2026-04-21 14:01 34.24945 -80.20990 31951 ft 451 kts 26°
2026-04-21 14:01 34.27573 -80.18950 31260 ft 448 kts 26°
2026-04-21 14:01 34.30171 -80.16933 30633 ft 439 kts 26°
2026-04-21 14:01 34.32806 -80.14889 28859 ft 460 kts 26°
2026-04-21 14:02 34.35480 -80.12806 28553 ft 445 kts 26°
2026-04-21 14:02 34.38079 -80.10782 26935 ft 455 kts 26°
2026-04-21 14:02 34.40749 -80.08703 26352 ft 449 kts 27°
2026-04-21 14:03 34.45735 -80.04817 26149 ft 424 kts 26°
2026-04-21 14:03 34.48219 -80.02879 25286 ft 424 kts 26°
2026-04-21 14:03 34.50660 -80.00970 25260 ft 404 kts 26°
2026-04-21 14:03 34.52932 -79.99189 25261 ft 386 kts 26°
2026-04-21 14:04 34.55215 -79.97411 24270 ft 396 kts 26°
2026-04-21 14:04 34.57565 -79.95573 23249 ft 405 kts 26°
2026-04-21 14:04 34.59958 -79.93700 22288 ft 412 kts 26°
2026-04-21 14:04 34.62318 -79.91849 21980 ft 392 kts 26°
2026-04-21 14:05 34.64534 -79.90109 21772 ft 368 kts 26°
2026-04-21 14:05 34.66631 -79.88466 21595 ft 352 kts 26°
2026-04-21 14:05 34.68650 -79.86819 21374 ft 351 kts 29°
2026-04-21 14:05 34.70664 -79.85023 21035 ft 358 kts 29°
2026-04-21 14:06 34.72665 -79.83252 20563 ft 361 kts 29°
2026-04-21 14:06 34.74726 -79.81434 20059 ft 360 kts 29°
2026-04-21 14:06 34.76742 -79.79658 19729 ft 355 kts 29°
2026-04-21 14:06 34.78742 -79.77897 19430 ft 355 kts 29°
2026-04-21 14:07 34.80744 -79.76133 19138 ft 354 kts 29°
2026-04-21 14:07 34.82733 -79.74379 18847 ft 353 kts 29°
2026-04-21 14:07 34.84721 -79.72625 18540 ft 351 kts 29°
2026-04-21 14:07 34.86694 -79.70883 18247 ft 349 kts 30°
2026-04-21 14:08 34.88654 -79.69153 17955 ft 348 kts 30°
2026-04-21 14:08 34.90609 -79.67426 17653 ft 346 kts 29°
2026-04-21 14:08 34.92548 -79.65711 17372 ft 344 kts 30°
2026-04-21 14:08 34.94486 -79.63997 17083 ft 343 kts 30°
2026-04-21 14:09 34.96413 -79.62291 16786 ft 341 kts 30°
2026-04-21 14:09 34.98329 -79.60594 16496 ft 340 kts 30°
2026-04-21 14:09 35.00237 -79.58903 16204 ft 338 kts 30°
2026-04-21 14:09 35.02136 -79.57218 15905 ft 337 kts 30°
2026-04-21 14:10 35.04031 -79.55537 15637 ft 336 kts 30°
2026-04-21 14:10 35.05911 -79.53867 15347 ft 334 kts 30°
2026-04-21 14:10 35.07782 -79.52206 15160 ft 327 kts 30°
2026-04-21 14:10 35.09589 -79.50598 15074 ft 315 kts 29°
2026-04-21 14:11 35.11470 -79.49392 14952 ft 302 kts 11°
2026-04-21 14:11 35.13565 -79.48925 14835 ft 310 kts
2026-04-21 14:11 35.15713 -79.48552 14615 ft 314 kts
2026-04-21 14:11 35.17885 -79.48213 14278 ft 313 kts
2026-04-21 14:12 35.20046 -79.47893 13892 ft 312 kts
2026-04-21 14:12 35.22196 -79.47589 13503 ft 310 kts
2026-04-21 14:12 35.24328 -79.47294 13114 ft 307 kts
2026-04-21 14:12 35.26440 -79.47007 12734 ft 304 kts
2026-04-21 14:13 35.28537 -79.46724 12352 ft 302 kts
2026-04-21 14:13 35.30620 -79.46442 12011 ft 298 kts
2026-04-21 14:13 35.32652 -79.46168 11864 ft 288 kts
2026-04-21 14:13 35.34617 -79.45902 11716 ft 271 kts
2026-04-21 14:14 35.36471 -79.45648 11558 ft 268 kts
2026-04-21 14:14 35.38318 -79.45397 11441 ft 265 kts
2026-04-21 14:14 35.40136 -79.44888 11130 ft 276 kts 17°
2026-04-21 14:14 35.41936 -79.44033 10830 ft 279 kts 15°
2026-04-21 14:15 35.43768 -79.43199 10528 ft 284 kts 16°
2026-04-21 14:15 35.45592 -79.42362 10202 ft 274 kts 15°
2026-04-21 14:15 35.47321 -79.41566 10048 ft 257 kts 16°
2026-04-21 14:15 35.48885 -79.40469 9684 ft 269 kts 38°
2026-04-21 14:16 35.50071 -79.38668 9449 ft 271 kts 49°
2026-04-21 14:16 35.51180 -79.36776 9554 ft 276 kts 49°
2026-04-21 14:16 35.52295 -79.34844 9280 ft 279 kts 50°
2026-04-21 14:16 35.53413 -79.32884 8919 ft 282 kts 50°
2026-04-21 14:17 35.54531 -79.30910 8600 ft 280 kts 51°
2026-04-21 14:17 35.55630 -79.28962 8351 ft 275 kts 51°
2026-04-21 14:17 35.56713 -79.27036 8079 ft 273 kts 51°
2026-04-21 14:17 35.57781 -79.25134 7838 ft 269 kts 51°
2026-04-21 14:18 35.58482 -79.23885 7660 ft 267 kts 51°
2026-04-21 14:18 35.59533 -79.22012 7419 ft 265 kts 51°
2026-04-21 14:18 35.60567 -79.20165 7153 ft 253 kts 51°
2026-04-21 14:18 35.61546 -79.18419 6930 ft 242 kts 51°
2026-04-21 14:19 35.62465 -79.16780 6707 ft 231 kts 51°
2026-04-21 14:19 35.63384 -79.15138 6561 ft 231 kts 51°
2026-04-21 14:19 35.64301 -79.13498 6193 ft 237 kts 52°
2026-04-21 14:19 35.65197 -79.11777 5851 ft 236 kts 60°
2026-04-21 14:20 35.65855 -79.10048 6086 ft 223 kts 61°
2026-04-21 14:20 35.66538 -79.08291 5860 ft 230 kts 61°
2026-04-21 14:20 35.67236 -79.06515 5586 ft 230 kts 61°
2026-04-21 14:20 35.67931 -79.04760 5345 ft 228 kts 61°
2026-04-21 14:21 35.68617 -79.03036 5218 ft 223 kts 61°
2026-04-21 14:21 35.69302 -79.01327 5075 ft 223 kts 60°
2026-04-21 14:21 35.70213 -78.99813 4837 ft 220 kts 43°
2026-04-21 14:21 35.71293 -78.98474 4567 ft 220 kts 44°
2026-04-21 14:22 35.72371 -78.97133 4290 ft 220 kts 44°
2026-04-21 14:22 35.73446 -78.95801 4085 ft 219 kts 44°
2026-04-21 14:22 35.74530 -78.94464 3770 ft 222 kts 45°
2026-04-21 14:22 35.75600 -78.93144 3459 ft 211 kts 45°
2026-04-21 14:23 35.76603 -78.91911 3216 ft 199 kts 45°
2026-04-21 14:23 35.77575 -78.90715 2886 ft 194 kts 46°
2026-04-21 14:23 35.78496 -78.89589 2624 ft 178 kts 47°
2026-04-21 14:23 35.79327 -78.88563 2425 ft 165 kts 47°
2026-04-21 14:24 35.80108 -78.87581 2212 ft 155 kts 47°
2026-04-21 14:24 35.80856 -78.86661 2011 ft 150 kts 47°
2026-04-21 14:24 35.81584 -78.85763 1802 ft 143 kts 47°
2026-04-21 14:24 35.82274 -78.84908 1608 ft 139 kts 48°
2026-04-21 14:25 35.82951 -78.84071 1418 ft 138 kts 49°
2026-04-21 14:25 35.83628 -78.83234 1235 ft 138 kts 48°
2026-04-21 14:25 35.84302 -78.82401 1059 ft 138 kts 48°
2026-04-21 14:25 35.84977 -78.81565 869 ft 137 kts 48°
2026-04-21 14:26 35.85657 -78.80727 696 ft 138 kts 48°
2026-04-21 14:26 35.86330 -78.79891 513 ft 138 kts 47°
2026-04-21 14:26 35.86985 -78.79086 432 ft 107 kts 45°
2026-04-21 14:26 35.87256 -78.78758 439 ft 32 kts 45°
2026-04-21 14:27 35.87391 -78.78610 430 ft 12 kts
2026-04-21 14:27 35.87452 -78.78678 438 ft 11 kts 279°
2026-04-21 14:27 35.87411 -78.78747 424 ft 7 kts 221°
2026-04-21 14:27 35.87362 -78.78809 428 ft 13 kts 233°
2026-04-21 14:28 35.87349 -78.78880 438 ft 7 kts 308°
2026-04-21 14:28 35.87392 -78.78899 438 ft 6 kts 345°
2026-04-21 14:28 35.87417 -78.78908 429 ft 1 kts 345°
2026-04-21 14:28 35.87425 -78.78910 438 ft 0 kts 345°